Location: Fauquembergues
(50.6005°N, 2.0987°E)
Time: 20:52:25
(UTC+00:00)

Meteor 1-19 Rocket - Pass Details

Date: 24 October 2020
Orbit: 809 x 926 km, 81.2° (Epoch: 03 December)

Event Time Altitude Azimuth Distance (km) Brightness Sun altitude
Exits shadow 01:11:56 13° 14° (NNE) 2,393 7.0 -46.6°
Drops below altitude 10° 01:12:36 10° 14° (NNE) 2,640 7.3 -46.5°
Sets 01:15:06 0° 14° (NNE) 3,588 8.1 -46.3°
